Regional Weather Roundup
Issued by NWS

Home | Current Version | Previous Version | Text Only | Print | Product List | Glossary Off
Versions: 1 2 3 4 5 6 7 8 9 10 11 12 13 14 15 16 17 18 19 20 21 22 23 24 25 26 27 28 29 30 31 32 33 34 35 36 37 38 39 40 41 42 43 44 45 46 47 48 49 50

000
ASUS43 KFSD 191210
RWRSD

WEATHER ROUNDUP FOR SOUTH DAKOTA
NATIONAL WEATHER SERVICE SIOUX FALLS SD
700 AM CDT SUN APR 19 2015

NOTE: "FAIR" INDICATES FEW OR NO CLOUDS BELOW 12,000 FEET WITH NO
SIGNIFICANT WEATHER AND/OR OBSTRUCTIONS TO VISIBILITY.


SDZ001>005-009-010-012>017-191300-
NORTHWEST AND NORTH CENTRAL SOUTH DAKOTA

CITY           SKY/WX    TMP DP  RH WIND       PRES   REMARKS
BUFFALO          N/A     31  23  72 NW17      29.99S WCI  19
FAITH            N/A     35  28  75 NW20      30.01R WCI  24
MOBRIDGE       CLOUDY    43  34  70 NW20G28   29.90R
$$

SDZ012>016-024>037-041>051-057-063-072>074-191300-
SOUTHWEST AND SOUTH CENTRAL SOUTH DAKOTA

CITY           SKY/WX    TMP DP  RH WIND       PRES   REMARKS
RAPID CTY ARPT MOCLDY    38  25  59 NW20      30.07R
PIERRE         PTCLDY    42  36  79 NW16      29.92S
CUSTER         CLEAR     30  19  63 NW10      30.06R WCI  21
ELLSWORTH AFB  MOCLDY    37  25  62 NW16      30.06R
PHILIP         PTCLDY    38  32  79 NW14      30.01S
PINE RIDGE     CLEAR     39  27  62 N13       30.05S
SPEARFISH      FAIR      32  21  64 W15G21    30.10R WCI  22
WINNER         CLOUDY    46  39  76 NW20G25   29.93R
$$

SDZ004>011-016>023-039-040-191300-
NORTHEAST SOUTH DAKOTA

CITY           SKY/WX    TMP DP  RH WIND       PRES   REMARKS
ABERDEEN       CLOUDY    46  42  86 NW26G32   29.81R
WATERTOWN      CLOUDY    48  45  89 NW16G26   29.73R
BROOKINGS      CLOUDY    52  48  87 NW20      29.74R
SISSETON         N/A     48  47  96 N22       29.70R
$$

SDZ017-020-022-023-036>040-048>070-191300-
SOUTHEAST SOUTH DAKOTA

CITY           SKY/WX    TMP DP  RH WIND       PRES   REMARKS
SIOUX FALLS    CLOUDY    51  49  92 NW15      29.74R
HURON          CLOUDY    46  43  89 NW25G33   29.80R
CHAMBERLAIN    CLOUDY    45  39  79 NW18G26   29.91R
MITCHELL       CLOUDY    49  45  86 NW25G31   29.82R
YANKTON        CLOUDY    48  46  93 NW23      29.78R
$$

ABBREVIATIONS USED IN REMARKS
   TC - TEMPERATURE IN CELSIUS
  WCI - WIND CHILL INDEX
   HX - HEAT INDEX
  VSB - VISIBILITY



USA.gov is the U.S. government's official web portal to all federal, state and local government web resources and services.